This demonstration page uses our WeatherBlox Daily Observations layout. Learn more.

Left ArrowRight Arrow

Hourly Observations for May 3, 2019

Temp ( °F °C ) Dew Point ( °F °C ) Humidity (%) Winds ( mph kmh ) Pressure ( in mb ) Visibility ( mi km ) Precip ( " mm )
6:30 am 06:30 Cloudy with Light Rain 59 15 57 14 94 94 E 5 7 29.97 1015 4 6 N/A
6:50 am 06:50 Cloudy with Light Rain 59 15 57 14 94 94 E 6 9 29.97 1015 4 6 N/A
7:21 am 07:21 Cloudy with Light Rain 59 15 57 14 94 94 E 3 6 29.99 1015 4 6 N/A
7:47 am 07:47 Cloudy with Light Rain 59 15 57 14 94 94 ESE 6 9 29.99 1015 4 6 N/A
8:17 am 08:17 Cloudy with Light Rain 61 16 57 14 88 88 NW 9 15 30.00 1016 5 8 N/A
8:47 am 08:47 Cloudy with Mist and Fog 61 16 57 14 88 88 Calm 29.99 1016 5 8 N/A
9:19 am 09:19 Mostly Cloudy 63 17 59 15 88 88 Calm 29.97 1015 10 16 N/A
9:53 am 09:53 Mostly Cloudy 63 17 59 15 88 88 WNW 3 6 29.98 1015 10 16 N/A
10:48 am 10:48 Mostly Cloudy 64 18 59 15 83 83 NNW 7 11 29.98 1015 10 16 N/A
11:31 am 11:31 Cloudy with Mist and Fog 63 17 59 15 88 88 NNW 9 15 29.99 1016 3 5 N/A
11:47 am 11:47 Mostly Cloudy with Mist and Fog 63 17 59 15 88 88 NNW 7 11 29.99 1016 3 5 N/A
12:34 pm 12:34 Mostly Cloudy 66 19 59 15 78 78 NNW 13 20 29.98 1015 7 11 N/A
12:48 pm 12:48 Mostly Cloudy 66 19 59 15 78 78 NNW 10 17 29.98 1015 7 11 N/A
1:59 pm 13:59 Mostly Cloudy with Mist and Fog 64 18 59 15 83 83 NNW 8 13 29.96 1015 5 8 N/A
2:22 pm 14:22 Partly Cloudy 68 20 59 15 73 73 NW 9 15 29.95 1014 7 11 N/A
2:45 pm 14:45 Partly Cloudy 68 20 59 15 73 73 NNW 8 13 29.96 1015 7 11 N/A
3:45 pm 15:45 Partly Cloudy 68 20 59 15 73 73 NW 8 13 29.94 1014 7 11 N/A
4:45 pm 16:45 Partly Cloudy 68 20 59 15 73 73 NNW 12 19 29.94 1014 10 16 N/A
5:45 pm 17:45 Partly Cloudy 66 19 57 14 73 73 NW 12 19 29.95 1014 10 16 N/A
6:45 pm 18:45 Partly Cloudy 66 19 57 14 73 73 NNW 9 15 29.95 1014 10 16 N/A
7:45 pm 19:45 Mostly Cloudy 64 18 57 14 78 78 NW 9 15 29.95 1014 10 16 N/A
8:45 pm 20:45 Cloudy 63 17 55 13 77 77 NW 8 13 29.96 1015 10 16 N/A
9:45 pm 21:45 Cloudy 61 16 55 13 83 83 N 6 9 29.96 1015 10 16 N/A

Powered by AerisWeather